Location: Helds Island Access
(38.5526°N, 91.5997°W)
Time: 16:09:22
(UTC-06:00)

Daily predictions for brighter satellites

Satellite Brightness Start Highest point End
(mag) Time Altitude Azimuth Time Altitude Azimuth Time Altitude Azimuth
Cosmos 841 Rocket 3.6 17:33:29 10° S 17:38:41 67° ESE 17:43:56 10° NNE
Cosmos 2034 Rocket 4.4 17:32:26 10° N 17:38:47 76° W 17:45:08 10° S
Cosmos 371 Rocket 3.8 17:35:09 10° S 17:39:37 40° ESE 17:44:06 10° NE
NOSS 0 Rocket 4.5 17:35:03 10° S 17:40:44 39° ESE 17:46:27 10° NE
Lacrosse 5 rocket 3.2 17:39:36 10° N 17:41:10 12° NNE 17:42:44 10° NE
MOS 1 4.3 17:36:05 10° SSE 17:41:43 85° ENE 17:47:25 10° NNW
CZ-4 R/B 1.8 17:38:54 10° S 17:42:44 67° W 17:46:37 10° NNW
OTV 4 0.4 17:43:06 10° W 17:46:05 80° S 17:49:02 10° E
CENTAUR R/B 2.9 17:43:14 10° SW 17:49:12 67° NW 17:55:59 10° NNE
Cosmos 1937 Rocket 4.0 17:45:28 10° NNW 17:50:38 67° WSW 17:55:47 10° S
OAO 3 Rocket 4.4 17:46:54 10° W 17:51:30 40° SSW 17:56:00 10° SE
SMAP 3.5 17:47:53 10° S 17:52:30 69° WSW 17:57:10 10° NNW
Cosmos 2084 3.4 17:50:19 10° SSW 17:54:11 55° ESE 17:57:55 10° NE
Resurs 01 Rocket 3.6 17:54:23 10° ENE 17:54:23 10° ENE 17:54:25 10° ENE
Abrixas rocket 3.8 17:55:03 10° WNW 17:58:09 38° SW 18:01:16 10° SSE
Meteor 2-2 Rocket 4.2 17:53:00 10° N 17:58:39 74° E 18:04:17 10° SSE
Cosmos 44 Rocket 3.4 17:53:34 10° SSW 17:58:41 70° ESE 18:03:44 10° NE
Cosmos 1844 Rocket 2.7 17:53:55 10° NNW 17:59:37 81° ENE 18:05:15 10° SSE
Lacrosse 5 4.1 17:56:46 10° WNW 17:59:46 15° NNW 18:02:45 10° NNE
Cosmos 1328 3.9 17:56:15 10° S 18:00:03 50° E 18:03:53 10° NNE
Meteor 1-28 Rocket 3.8 17:56:57 10° NNE 18:00:23 34° E 18:03:47 10° SSE
CZ-3A R/B 3.8 17:56:41 10° NW 18:01:08 26° NNE 18:04:51 12° E
Aureole 2 Rocket 3.9 17:59:46 10° SSE 18:02:30 21° E 18:04:38 14° ENE
YAOGAN 1 3.3 17:58:34 10° S 18:02:49 59° WSW 18:07:07 10° NNW
COSMO-SKYMED 1 2.6 17:58:43 10° NNE 18:03:02 62° E 18:07:19 10° S
CZ-2C R/B 3.6 17:58:14 10° S 18:03:06 48° W 18:07:50 10° NNW
Cosmos 836 Rocket 4.5 18:03:04 10° SSW 18:08:16 78° ESE 18:13:33 10° NNE
Cosmos 2228 Rocket 3.4 18:04:30 10° NNW 18:08:54 69° W 18:13:18 10° S
Cosmos 2360 Rocket 4.3 18:08:06 10° WSW 18:12:24 22° NW 18:16:43 10° N
SJ-6B 3.8 18:09:33 10° SE 18:12:59 27° ENE 18:16:27 10° NNE
Cosmos 2279 Rocket 4.3 18:07:07 10° N 18:13:02 44° ENE 18:18:56 10° SSE
Cosmos 1980 3.7 18:07:35 10° S 18:13:10 64° ESE 18:18:48 10° NNE
Milstar 3 4.1 18:09:18 10° WSW 18:15:20 33° S 18:21:39 10° SE
Cosmos 2058 3.1 18:15:57 10° SSE 18:19:54 48° E 18:23:52 10° NNE
Cosmos 2333 Rocket 2.2 18:20:00 10° SSW 18:25:38 84° WNW 18:31:20 10° NNE
Cosmos 304 Rocket 4.4 18:21:21 10° SSE 18:25:38 33° E 18:28:08 20° NE
Cosmos 1703 3.9 18:24:26 10° SSE 18:27:56 32° E 18:29:16 25° NE
Atlas Centaur 2 4.1 18:25:13 10° WSW 18:28:18 16° SSW 18:31:02 10° SSE
Meteor 2-10 3.9 18:30:42 10° N 18:35:45 64° E 18:40:55 10° SSE
Cosmos 372 Rocket 3.9 18:30:57 10° N 18:36:00 60° ENE 18:41:01 10° SSE
METEOR-M 4.1 18:31:54 10° SSE 18:37:10 63° ENE 18:42:28 10° N
Cosmos 2219 Rocket 3.0 18:33:37 10° SW 18:39:04 50° WNW 18:44:34 10° NNE
Cosmos 1340 Rocket 2.6 18:38:42 10° S 18:42:37 70° E 18:45:23 19° NNE
Meteor 1-27 4.2 18:36:53 10° N 18:42:43 78° E 18:48:33 10° SSE
BREEZE-M DEB (TANK) 2.7 18:41:15 10° W 18:43:37 27° NNW 18:43:54 26° NNW
Cosmos 1356 Rocket 4.0 18:40:24 10° SSE 18:43:35 34° ESE 18:43:35 34° ESE
Cosmos 2151 3.6 18:41:42 10° SSW 18:45:50 56° W 18:49:58 10° N
Cosmos 2278 Rocket 2.1 18:40:25 10° NNW 18:46:07 86° ENE 18:51:48 10° SSE
Cosmos 540 Rocket 3.8 18:41:56 10° SSW 18:47:05 68° WNW 18:52:15 10° NNE
Abrixas 2.3 18:44:28 10° SW 18:47:20 71° SSE 18:47:20 71° SSE
SL-14 R/B 4.3 18:47:37 10° SSW 18:51:23 46° W 18:55:12 10° N
USA 215 3.2 18:46:06 10° SE 18:52:40 85° NE 18:59:15 10° NW
Cosmos 1626 2.5 18:49:38 10° S 18:52:37 43° SE 18:52:37 43° SE
Cosmos 1805 Rocket 3.4 18:49:34 10° S 18:54:00 74° E 18:57:08 19° NNE
Cosmos 1151 Rocket 4.4 18:53:53 10° NNW 18:57:53 39° W 19:01:52 10° SSW
Haruka 4.4 18:59:12 10° WSW 19:03:32 50° SSE 19:09:16 26° ESE
NOAA 12 4.4 18:59:09 10° S 19:04:20 66° WSW 19:09:34 10° NNW
Cosmos 1125 Rocket 4.5 19:01:03 10° NNW 19:06:02 48° WSW 19:10:59 10° S
Timation 1 Rocket 4.2 19:00:27 10° NNW 19:06:27 66° ENE 19:10:29 21° SE
BREEZE M DEB (TANK) 3.9 19:05:12 10° NW 19:05:47 16° NW 19:05:47 16° NW
ALOS 2.1 19:03:54 10° SSE 19:08:31 65° ENE 19:13:09 10° N
Cosmos 2237 Rocket 3.1 19:04:25 10° SW 19:09:49 47° WNW 19:14:53 12° N
Cosmos 44 4.4 19:07:10 10° SW 19:12:10 43° NW 19:15:09 21° N
Spot 2 Rocket 3.3 19:08:59 10° SSE 19:13:59 69° ENE 19:19:00 10° N
SL-16 R/B 2.0 19:08:41 10° SSW 19:14:19 81° ESE 19:16:19 42° NNE
Sich 1 2.9 19:13:31 10° S 19:17:57 87° ESE 19:17:57 87° ESE
Lacrosse 5 rocket 2.4 19:17:06 10° NW 19:19:24 35° NNW 19:19:24 35° NNW
Cosmos 1633 Rocket 3.4 19:16:41 10° S 19:20:04 53° S 19:20:04 53° S
Cosmos 1538 Rocket 3.9 19:16:33 10° SSW 19:21:49 83° ESE 19:22:41 63° NNE
OTV 4 2.9 19:19:16 10° W 19:20:41 22° WSW 19:20:41 22° WSW
Cosmos 2297 3.6 19:19:28 10° NNW 19:25:12 84° ENE 19:27:02 46° SSE
Resurs 01 Rocket 2.8 19:31:56 35° NNW 19:31:56 35° NNW 19:34:34 10° NNW
USA 229 DEB 3.8 19:25:33 10° S 19:31:47 53° SE 19:31:47 53° SE
USA 229 3.8 19:25:40 10° S 19:31:49 52° SE 19:31:49 52° SE
H-2A ROCKET BODY 3.5 19:48:25 10° WSW 20:02:03 37° SSW 20:02:29 37° S
